FENGYUN 1C DEB

Satellite information

Favourite Embed

Satellite Type and Status

DEBRISIN ORBIT

Key statistics

Satellite FENGYUN 1C DEB at a glance.

Uptime

9555

Days in orbit

Revolutions

≈ 14.8

Per day

Orbit

SSO

Sun Synchronous Orbit

Inclination

99.1

Latest

Satellite identification and parameters

Extended collection of information and parameters for FENGYUN 1C DEB.

Object identification

Identified? True

Debris? True

Object name: FENGYUN 1C DEB

International designator: 1999-025EPA

Object number (NORAD): 37925

Object ID (CCSDS): 37925

Country: PEOPLES REPUBLIC OF CHINA (PRC)

Current information (Y/N): Y

RCS size: SMALL

Orbital parameters

Period: 97.55 minutes

Inclination: 99.1066 deg

SMA: 7019.579 km

Apoapsis: 684.459 km

Periapsis: 598.428 km

RAAN: 27.1291 deg

Eccentricy: 0.0061279

Argument of periapsis: 143.9807 deg

Mean anomaly: 216.5553 deg

Mean motion: 14.76169362 rev/day

Mean motion (dot): 0.00005543 rev/day2

B* drag term: 0.00078655 1/REarth

Two-line elements (TLE)

Creation date: June 29, 2025, 2:46 p.m.

Reference frame: TEME

Reference center: EARTH

Epoch: June 28, 2025, 9:28 a.m. UTC

TLE line 0: 0 FENGYUN 1C DEB

TLE line 1: 1 37925U 99025EPA 25179.39487229 .00005543 00000-0 78655-3 0 9990

TLE line 2: 2 37925 99.1066 27.1291 0061279 143.9807 216.5553 14.76169362795810

Live tracking on map

Real-time ground track for satellite FENGYUN 1C DEB.

In-orbit conjunctions

A list of the most updated potential collisions computed for object FENGYUN 1C DEB.

Target Orbit TCA Probability of collision Miss distance Type
CZ-6A DEB LEO 2024-12-01 13:33:08 0.0001133621 885.0 (m) DEBRIS
CZ-6A DEB LEO 2024-11-23 08:26:43 0.0001330979 895.0 (m) DEBRIS
COSMOS 2251 DEB LEO 2024-09-24 17:58:05 0.003838594 107.0 (m) DEBRIS

Associated space launch

Chinese polar orbiting meteorological satellite

FENGYUN 1C DEB was lifted into orbit during the mission ‘Long March 4B | Feng Yun 1C’, on board a Long March 4B space rocket.

The launch took place on May 10, 1999, 1:33 a.m. from Launch Complex 7.

For more information about the launch, click the button.

Launch to space Long March 4B | Feng Yun 1C
Long March 4B | Feng Yun 1C

Agency: N/A

Status: Launch Successful

Launch date: May 10, 1999, 1:33 a.m. UTC

Rocket: Long March 4B

Launch pad: Launch Complex 7

Location: Taiyuan Satellite Launch Center, People's Republic of China

...

Latest news about this satellite

There are no fresh news available about this satellite. Check back as we update our databases every day.


Newsletter sign-up

Weekly statistics, charts and insights to help you stay on top of the space industry.